Winchester, VA

4:22 PM EDT on October 19, 2017 (GMT -0400)
Winchester Regional

Weather History for KOKV - January, 2013

Change the Weather History Date:

Sunday, January 20, 2013

  Actual Average Record
Temperature  
Mean Temperature 42 °F -  
Max Temperature 53 °F 38 °F 60 °F (2006)
Min Temperature 32 °F 23 °F 3 °F (1984)
Degree Days  
Heating Degree Days 22    
Moisture  
Dew Point 23 °F    
Average Humidity 48    
Maximum Humidity 75    
Minimum Humidity 26    
Precipitation  
Precipitation 0.00 in - - ()
Sea Level Pressure  
Sea Level Pressure 29.92 in    
Wind  
Wind Speed 12 mph (West)    
Max Wind Speed 26 mph    
Max Gust Speed 38 mph    
Visibility 10 miles    
Events      
Averages and records for this station are not official NWS values.
T = Trace of Precipitation, MM = Missing Value Source: NWS Daily Summary

Daily Weather History Graph

Daily Weather History Graph

Search for Another Location

Airport or City:

Trip Planner

Search our weather history database for the weather conditions in past years. The results will help you decide how hot, cold, wet, or windy it might be!

Date:

Astronomy

Jan. 20, 2013 Rise Set
Actual Time 7:27 AM EST 5:19 PM EST
Civil Twilight 6:58 AM EST 5:48 PM EST
Nautical Twilight 6:26 AM EST 6:21 PM EST
Astronomical Twilight 5:54 AM EST 6:53 PM EST
Moon 12:19 PM EST (1/20) 1:58 AM EST (1/20)
Length of Visible Light 10h 50m
Length of Day
9h 52m
Waxing Gibbous, 66% of the Moon is Illuminated
Jan 20
Waxing Gibbous
Jan 26
Full
Feb 3
Last Quarter
Feb 10
New
Feb 17
First Quarter

Hourly Weather History & Observations

Time (EST) Temp. Windchill Dew Point Humidity Pressure Visibility Wind Dir Wind Speed Gust Speed Precip Events Conditions
12:15 AM 41.0 °F 34.3 °F 26.6 °F 57% 29.90 in 10.0 mi SW 11.5 mph 16.1 mph N/A   Clear
12:35 AM 41.0 °F 33.9 °F 26.6 °F 57% 29.89 in 10.0 mi SW 12.7 mph 19.6 mph N/A   Clear
12:55 AM 41.0 °F 33.9 °F 26.6 °F 57% 29.89 in 10.0 mi SW 12.7 mph 16.1 mph N/A   Clear
1:15 AM 41.0 °F 34.3 °F 26.6 °F 57% 29.89 in 10.0 mi WSW 11.5 mph 16.1 mph N/A   Clear
1:35 AM 41.0 °F 34.7 °F 26.6 °F 57% 29.89 in 10.0 mi SW 10.4 mph 17.3 mph N/A   Clear
1:55 AM 41.0 °F 34.3 °F 26.6 °F 57% 29.89 in 10.0 mi SW 11.5 mph 16.1 mph N/A   Clear
2:15 AM 41.0 °F 34.3 °F 26.6 °F 57% 29.88 in 10.0 mi SW 11.5 mph 16.1 mph N/A   Clear
2:35 AM 41.0 °F 35.8 °F 26.6 °F 57% 29.88 in 10.0 mi SW 8.1 mph - N/A   Clear
2:55 AM 41.0 °F 35.2 °F 26.6 °F 57% 29.88 in 10.0 mi SW 9.2 mph - N/A   Clear
3:15 AM 41.0 °F 35.8 °F 26.6 °F 57% 29.87 in 10.0 mi SW 8.1 mph - N/A   Clear
3:35 AM 41.0 °F 35.2 °F 26.6 °F 57% 29.86 in 10.0 mi SW 9.2 mph - N/A   Clear
3:55 AM 41.0 °F 36.4 °F 26.6 °F 57% 29.85 in 10.0 mi SW 6.9 mph - N/A   Scattered Clouds
4:15 AM 39.2 °F 33.6 °F 26.6 °F 61% 29.85 in 10.0 mi SW 8.1 mph - N/A   Scattered Clouds
4:35 AM 37.4 °F 32.8 °F 28.4 °F 70% 29.84 in 10.0 mi SW 5.8 mph - N/A   Mostly Cloudy
4:55 AM 37.4 °F 32.1 °F 26.6 °F 65% 29.83 in 10.0 mi SW 6.9 mph - N/A   Scattered Clouds
5:15 AM 39.2 °F 35.0 °F 28.4 °F 65% 29.83 in 10.0 mi SW 5.8 mph - N/A   Clear
5:35 AM 39.2 °F 34.2 °F 28.4 °F 65% 29.83 in 10.0 mi SW 6.9 mph - N/A   Clear
5:55 AM 41.0 °F 34.7 °F 28.4 °F 61% 29.82 in 10.0 mi SW 10.4 mph - N/A   Clear
6:15 AM 41.0 °F 33.9 °F 28.4 °F 61% 29.82 in 10.0 mi SW 12.7 mph - N/A   Clear
6:35 AM 41.0 °F 36.4 °F 28.4 °F 61% 29.82 in 10.0 mi SW 6.9 mph - N/A   Scattered Clouds
6:55 AM 37.4 °F 32.1 °F 28.4 °F 70% 29.83 in 10.0 mi SSW 6.9 mph - N/A   Scattered Clouds
7:15 AM 37.4 °F 32.8 °F 28.4 °F 70% 29.83 in 10.0 mi SSW 5.8 mph - N/A   Clear
7:35 AM 35.6 °F 30.7 °F 28.4 °F 75% 29.83 in 10.0 mi SSW 5.8 mph - N/A   Clear
7:55 AM 35.6 °F 32.8 °F 28.4 °F 75% 29.83 in 10.0 mi SSW 3.5 mph - N/A   Clear
8:15 AM 37.4 °F - 28.4 °F 70% 29.84 in 10.0 mi Calm Calm - N/A   Scattered Clouds
8:35 AM 39.2 °F 35.9 °F 30.2 °F 70% 29.84 in 10.0 mi West 4.6 mph - N/A   Scattered Clouds
8:55 AM 46.4 °F 40.7 °F 32.0 °F 57% 29.85 in 10.0 mi West 12.7 mph - N/A   Clear
9:15 AM 50.0 °F - 32.0 °F 50% 29.85 in 10.0 mi West 12.7 mph - N/A   Scattered Clouds
9:35 AM 50.0 °F - 32.0 °F 50% 29.85 in 10.0 mi West 16.1 mph 21.9 mph N/A   Clear
9:55 AM 51.8 °F - 32.0 °F 47% 29.85 in 10.0 mi West 17.3 mph 24.2 mph N/A   Clear
10:15 AM 51.8 °F - 32.0 °F 47% 29.85 in 10.0 mi West 19.6 mph 31.1 mph N/A   Scattered Clouds
10:35 AM 51.8 °F - 30.2 °F 44% 29.86 in 10.0 mi West 19.6 mph 28.8 mph N/A   Scattered Clouds
10:55 AM 51.8 °F - 30.2 °F 44% 29.86 in 10.0 mi West 24.2 mph 33.4 mph N/A   Clear
11:15 AM 51.8 °F - 28.4 °F 41% 29.87 in 10.0 mi West 25.3 mph 31.1 mph N/A   Clear
11:35 AM 51.8 °F - 28.4 °F 41% 29.87 in 10.0 mi West 26.5 mph 38.0 mph N/A   Clear
11:55 AM 51.8 °F - 28.4 °F 41% 29.86 in 10.0 mi West 25.3 mph 31.1 mph N/A   Clear
12:15 PM 51.8 °F - 28.4 °F 41% 29.85 in 10.0 mi West 25.3 mph 34.5 mph N/A   Clear
12:35 PM 53.6 °F - 28.4 °F 38% 29.86 in 10.0 mi West 19.6 mph 24.2 mph N/A   Clear
12:55 PM 51.8 °F - 26.6 °F 38% 29.86 in 10.0 mi West 19.6 mph 25.3 mph N/A   Clear
1:15 PM 53.6 °F - 26.6 °F 35% 29.87 in 10.0 mi West 21.9 mph 26.5 mph N/A   Clear
1:35 PM 51.8 °F - 24.8 °F 35% 29.86 in 10.0 mi West 23.0 mph 34.5 mph N/A   Clear
1:55 PM 51.8 °F - 24.8 °F 35% 29.88 in 10.0 mi West 17.3 mph 27.6 mph N/A   Clear
2:15 PM 51.8 °F - 23.0 °F 33% 29.88 in 10.0 mi WNW 17.3 mph 21.9 mph N/A   Clear
2:55 PM 50.0 °F - 17.6 °F 28% 29.91 in 10.0 mi WNW 23.0 mph 35.7 mph N/A   Clear
3:15 PM 50.0 °F - 15.8 °F 26% 29.92 in 10.0 mi WNW 21.9 mph 28.8 mph N/A   Clear
3:35 PM 50.0 °F - 17.6 °F 28% 29.93 in 10.0 mi WNW 17.3 mph 25.3 mph N/A   Clear
3:55 PM 48.2 °F - 19.4 °F 32% 29.94 in 10.0 mi WNW 19.6 mph - N/A   Scattered Clouds
4:15 PM 46.4 °F 39.5 °F 19.4 °F 34% 29.96 in 10.0 mi NW 17.3 mph 25.3 mph N/A   Clear
4:35 PM 44.6 °F 36.6 °F 17.6 °F 34% 29.97 in 10.0 mi WNW 19.6 mph 26.5 mph N/A   Clear
4:55 PM 42.8 °F 34.8 °F 15.8 °F 34% 29.97 in 10.0 mi WNW 17.3 mph - N/A   Scattered Clouds
5:15 PM 42.8 °F 36.6 °F 14.0 °F 31% 29.98 in 10.0 mi WNW 11.5 mph - N/A   Clear
5:35 PM 41.0 °F 33.5 °F 14.0 °F 33% 29.99 in 10.0 mi WNW 13.8 mph - N/A   Clear
5:55 PM 41.0 °F 34.3 °F 14.0 °F 33% 30.00 in 10.0 mi WNW 11.5 mph 21.9 mph N/A   Scattered Clouds
6:15 PM 41.0 °F 34.3 °F 14.0 °F 33% 30.01 in 10.0 mi WNW 11.5 mph 15.0 mph N/A   Clear
6:35 PM 39.2 °F 30.5 °F 14.0 °F 36% 30.01 in 10.0 mi WNW 16.1 mph 20.7 mph N/A   Clear
6:55 PM 37.4 °F 29.8 °F 14.0 °F 38% 30.02 in 10.0 mi WNW 11.5 mph - N/A   Scattered Clouds
7:15 PM 37.4 °F 28.9 °F 15.8 °F 41% 30.03 in 10.0 mi NW 13.8 mph - N/A   Scattered Clouds
7:35 PM 37.4 °F 28.9 °F 15.8 °F 41% 30.03 in 10.0 mi NW 13.8 mph - N/A   Clear
7:55 PM 35.6 °F 26.6 °F 15.8 °F 44% 30.02 in 10.0 mi NW 13.8 mph - N/A   Clear
8:15 PM 35.6 °F 27.1 °F 14.0 °F 41% 30.03 in 10.0 mi WNW 12.7 mph - N/A   Scattered Clouds
8:35 PM 35.6 °F 28.0 °F 14.0 °F 41% 30.03 in 10.0 mi WNW 10.4 mph - N/A   Scattered Clouds
8:55 PM 35.6 °F 28.0 °F 14.0 °F 41% 30.04 in 10.0 mi WNW 10.4 mph - N/A   Scattered Clouds
9:15 PM 35.6 °F 29.2 °F 14.0 °F 41% 30.04 in 10.0 mi WNW 8.1 mph - N/A   Scattered Clouds
9:35 PM 33.8 °F 29.6 °F 14.0 °F 44% 30.05 in 10.0 mi WNW 4.6 mph - N/A   Clear
9:55 PM 35.6 °F - 14.0 °F 41% 30.05 in 10.0 mi Calm Calm - N/A   Clear
10:15 PM 33.8 °F - 14.0 °F 44% 30.05 in 10.0 mi Calm Calm - N/A   Clear
10:35 PM 33.8 °F - 14.0 °F 44% 30.05 in 10.0 mi Calm Calm - N/A   Clear
10:55 PM 33.8 °F - 14.0 °F 44% 30.06 in 10.0 mi Calm Calm - N/A   Clear
11:15 PM 32.0 °F - 14.0 °F 48% 30.07 in 10.0 mi Calm Calm - N/A   Clear
11:35 PM 32.0 °F - 14.0 °F 48% 30.07 in 10.0 mi Calm Calm - N/A   Scattered Clouds
11:55 PM 32.0 °F 27.5 °F 14.0 °F 48% 30.07 in 10.0 mi North 4.6 mph - N/A   Scattered Clouds